Location: Gaast
(52.9002°N, 5.8891°E)
Time: 23:38:11
(UTC+00:00)

Timation 1 Rocket - Pass Details

Date: 18 November 2025
Orbit: 898 x 905 km, 70.0° (Epoch: 04 December)

Event Time Altitude Azimuth Distance (km) Brightness Sun altitude
Rises 16:49:10 0° 326° (NW) 3,530 7.6 -10.6°
Reaches altitude 10° 16:51:40 10° 326° (NW) 2,586 6.9 -11.0°
Maximum altitude 16:57:40 84° 239° (WSW) 913 4.4 -11.8°
Drops below altitude 10° 17:03:37 10° 152° (SSE) 2,574 6.6 -12.7°
Sets 17:06:06 0° 152° (SSE) 3,512 7.3 -13.1°
